This demonstration page uses our WeatherBlox Daily Observations layout. Learn more.

Hourly Observations for January 26, 2016

Temp ( °F °C ) Dew Point ( °F °C ) Humidity (%) Winds ( mph kmh ) Pressure ( in mb ) Visibility ( mi km ) Precip ( " mm )
12:15 am 00:15 Partly Cloudy 28 -2.3 24 -4.6 84 84 W 8 13 30.24 1024 10 16.0934 0 0
12:35 am 00:35 Clear 28 -2.4 24 -4.6 85 85 W 9 15 30.24 1024 10 16.0934 0 0
12:55 am 00:55 Clear 28 -2.5 23 -4.9 84 84 W 10 17 30.24 1024 10 16.0934 0 0
1:15 am 01:15 Clear 27 -2.9 23 -5.1 85 85 WNW 8 13 30.27 1025 10 16.0934 0 0
1:35 am 01:35 Clear 27 -2.8 23 -5 85 85 WNW 10 17 30.27 1025 10 16.0934 0 0
1:55 am 01:55 Clear 26 -3.1 22 -5.5 84 84 NW 9 15 30.27 1025 10 16.0934 0 0
2:15 am 02:15 Clear 26 -3.1 22 -5.4 84 84 NW 12 19 30.27 1025 10 16.0934 0 0
2:35 am 02:35 Clear 26 -3.5 22 -5.7 85 85 NW 9 15 30.3 1026 10 16.0934 0 0
2:55 am 02:55 Clear 25 -4 21 -6.1 86 86 NW 8 13 30.3 1026 10 16.0934 0 0
3:15 am 03:15 Clear 24 -4.2 21 -6.2 86 86 NW 8 13 30.3 1026 10 16.0934 0 0
3:35 am 03:35 Clear 24 -4.4 20 -6.5 85 85 WNW 7 11 30.3 1026 10 16.0934 0 0
3:55 am 03:55 Clear 23 -4.9 20 -6.7 87 87 W 7 11 30.3 1026 10 16.0934 0 0
4:15 am 04:15 Clear 23 -4.9 20 -6.9 86 86 W 6 9 30.3 1026 10 16.0934 0 0
4:35 am 04:35 Clear 23 -5.2 19 -7.1 87 87 W 7 11 30.3 1026 10 16.0934 0 0
4:55 am 04:55 Clear 22 -5.5 19 -7.3 87 87 W 8 13 30.3 1026 10 16.0934 0 0
5:15 am 05:15 Clear 22 -5.5 19 -7.3 87 87 W 8 13 30.36 1028 10 16.0934 0 0
5:35 am 05:35 Clear 21 -5.9 18 -7.6 88 88 W 9 15 30.36 1028 10 16.0934 0 0
5:55 am 05:55 Clear 21 -6.2 18 -8 87 87 W 9 15 30.36 1028 10 16.0934 0 0
6:15 am 06:15 Clear 22 -5.4 19 -7 89 89 W 10 17 30.36 1028 10 16.0934 0 0
6:35 am 06:35 Clear 23 -4.9 20 -6.7 87 87 W 9 15 30.36 1028 10 16.0934 0 0
6:55 am 06:55 Clear 23 -5.1 19 -7.1 86 86 W 7 11 30.36 1028 10 16.0934 0 0
7:15 am 07:15 Clear 23 -4.8 19 -7 85 85 W 8 13 30.39 1029 10 16.0934 0 0
7:35 am 07:35 Clear 23 -4.8 19 -7.3 83 83 WNW 9 15 30.39 1029 10 16.0934 0 0
7:55 am 07:55 Sunny 23 -5.2 18 -7.6 83 83 WNW 9 15 30.39 1029 10 16.0934 0 0
8:15 am 08:15 Sunny 23 -5.1 19 -7.5 83 83 NW 9 15 30.39 1029 10 16.0934 0 0
8:35 am 08:35 Sunny 24 -4.7 19 -7.1 84 84 NW 9 15 30.39 1029 10 16.0934 0 0
8:55 am 08:55 Sunny 26 -3.5 20 -6.5 80 80 WNW 7 11 30.36 1028 10 16.0934 0 0
9:15 am 09:15 Sunny 26 -3.2 20 -6.5 78 78 WNW 7 11 30.39 1029 10 16.0934 0 0
9:35 am 09:35 Sunny 27 -2.8 21 -6.1 78 78 W 7 11 30.39 1029 10 16.0934 0 0
9:55 am 09:55 Sunny 28 -2 22 -5.5 77 77 WNW 7 11 30.39 1029 10 16.0934 0 0
10:15 am 10:15 Sunny 30 -1.1 23 -5.1 75 75 WNW 9 15 30.36 1028 10 16.0934 0 0
10:35 am 10:35 Sunny 32 0 24 -4.2 74 74 WNW 10 17 30.36 1028 10 16.0934 0 0
10:55 am 10:55 Sunny 33 0.7 24 -4.3 70 70 NW 9 15 30.36 1028 10 16.0934 0 0
11:15 am 11:15 Sunny 34 1 25 -3.9 70 70 WNW 9 15 30.36 1028 10 16.0934 0 0
11:35 am 11:35 Sunny 35 1.5 26 -3.5 70 70 WNW 7 11 30.33 1027 10 16.0934 0 0
11:55 am 11:55 Sunny 36 2.1 26 -3.4 67 67 W 7 11 30.33 1027 10 16.0934 0 0
12:15 pm 12:15 Sunny 37 2.5 26 -3.5 65 65 WNW 7 11 30.33 1027 10 16.0934 0 0
12:35 pm 12:35 Sunny 38 3.5 26 -3.5 61 61 WNW 6 9 30.3 1026 10 16.0934 0 0
12:55 pm 12:55 Sunny 39 4 25 -4.1 56 56 WNW 8 13 30.3 1026 10 16.0934 0 0
1:15 pm 13:15 Sunny 40 4.7 25 -3.7 55 55 WNW 7 11 30.27 1025 10 16.0934 0 0
1:35 pm 13:35 Sunny 41 5 25 -3.8 53 53 WNW 8 13 30.24 1024 10 16.0934 0 0
1:55 pm 13:55 Sunny 42 5.6 24 -4.3 49 49 WNW 10 17 30.24 1024 10 16.0934 0 0
2:15 pm 14:15 Sunny 43 6 24 -4.4 48 48 NW 9 15 30.24 1024 10 16.0934 0 0
2:35 pm 14:35 Sunny 43 6.1 24 -4.6 47 47 NW 9 15 30.24 1024 10 16.0934 0 0
2:55 pm 14:55 Sunny 43 6.2 22 -5.4 44 44 NW 12 19 30.24 1024 10 16.0934 0 0
3:15 pm 15:15 Sunny 44 6.5 22 -5.3 43 43 WNW 9 15 30.24 1024 10 16.0934 0 0
3:35 pm 15:35 Sunny 44 6.5 23 -4.9 44 44 WNW 7 11 30.24 1024 10 16.0934 0 0
3:55 pm 15:55 Sunny 44 6.5 23 -5.2 43 43 NW 8 13 30.24 1024 10 16.0934 0 0
4:15 pm 16:15 Sunny 44 6.5 23 -5.2 43 43 WNW 6 9 30.21 1023 10 16.0934 0 0
4:35 pm 16:35 Sunny 44 6.5 24 -4.7 45 45 NW 3 6 30.21 1023 10 16.0934 0 0
4:55 pm 16:55 Sunny 42 5.8 24 -4.4 48 48 NW 3 6 30.21 1023 10 16.0934 0 0
5:15 pm 17:15 Sunny 41 5 24 -4.4 51 51 Calm 30.21 1023 10 16.0934 0 0
5:35 pm 17:35 Sunny 40 4.2 24 -4.2 55 55 Calm 30.24 1024 10 16.0934 0 0
5:55 pm 17:55 Clear 38 3.6 23 -4.8 55 55 Calm 30.24 1024 10 16.0934 0 0
6:15 pm 18:15 Clear 37 3 23 -4.8 57 57 Calm 30.24 1024 10 16.0934 0 0
6:35 pm 18:35 Clear 36 2 24 -4.5 62 62 Calm 30.24 1024 10 16.0934 0 0
6:55 pm 18:55 Clear 34 1 24 -4.5 67 67 Calm 30.3 1026 10 16.0934 0 0
7:15 pm 19:15 Clear 33 0.4 24 -4.7 69 69 Calm 30.3 1026 10 16.0934 0 0
7:35 pm 19:35 Clear 32 0 23 -4.8 70 70 Calm 30.3 1026 10 16.0934 0 0
7:55 pm 19:55 Clear 32 -0.2 24 -4.7 72 72 Calm 30.3 1026 10 16.0934 0 0
8:15 pm 20:15 Clear 31 -0.4 24 -4.5 74 74 Calm 30.3 1026 10 16.0934 0 0
8:35 pm 20:35 Clear 32 0 24 -4.6 71 71 SSW 5 7 30.3 1026 10 16.0934 0 0
8:55 pm 20:55 Clear 32 0 23 -5 69 69 SSW 6 9 30.3 1026 10 16.0934 0 0
9:15 pm 21:15 Clear 32 0.1 23 -5.2 68 68 SW 3 6 30.3 1026 10 16.0934 0 0
9:35 pm 21:35 Clear 32 -0.1 22 -5.5 67 67 SSW 5 7 30.3 1026 10 16.0934 0 0
9:55 pm 21:55 Clear 31 -0.4 22 -5.5 69 69 Calm 30.3 1026 10 16.0934 0 0
10:15 pm 22:15 Clear 29 -1.4 21 -6 71 71 Calm 30.3 1026 10 16.0934 0 0
10:35 pm 22:35 Clear 26 -3.3 21 -6.1 81 81 Calm 30.33 1027 10 16.0934 0 0
10:55 pm 22:55 Clear 27 -2.7 21 -6.2 77 77 W 5 7 30.33 1027 10 16.0934 0 0
11:15 pm 23:15 Clear 30 -1.1 20 -6.7 66 66 W 5 7 30.3 1026 10 16.0934 0 0
11:35 pm 23:35 Clear 31 -0.8 20 -6.9 64 64 WNW 3 6 30.3 1026 10 16.0934 0 0
11:55 pm 23:55 Clear 29 -1.4 19 -7 66 66 W 3 6 30.3 1026 10 16.0934 0 0

Powered by AerisWeather